Airport Information

KPUW - Pullman-Moscow Rgnl Airport

KPUW 251053Z AUTO 10013KT 10SM CLR 03/02 A3019 RMK AO2 SLP239 T00330017


  • General Information

  • Coordinates: N 46°44'37"/ W 117°6'34"
  • Location: N/A
  • Surveyed Elevation: 2556 MSL

Operations

Flow Name Active Runways Conditions

Green background denotes normal operations.


Common Frequencies

Callsign Frequency Position Name

More at the Document Center


Charts